DW7554 Weather Reports


time (UTC)temp
F
wind
direction
speed
knots
gust
knots
rain 1hr
in
rain 24hr
in
rain mn
in
humidity
%
barometer
mb
20260506131556 51 291 5.2 12.2 0.02 0.03 0.03 86 1003.5
20260506130046 52 268 1.7 12.2 0.03 0.03 0.03 87 1003.3
20260506124540 52 240 4.3 12.2 0.03 0.03 0.03 87 1003.4
20260506123039 52 280 3.5 12.2 0.02 0.02 0.02 86 1003.6
20260506121538 53 266 6.1 12.2 0.01 0.01 0.01 83 1003.5
20260506120037 54 283 7.8 12.2 0.00 0.00 0.00 76 1003.4
20260506114535 55 255 1.7 12.2 0.00 0.00 0.00 71 1003.4
20260506113035 55 301 0.9 12.2 0.00 0.00 0.00 74 1003.6
20260506111532 54 252 1.7 12.2 0.00 0.00 0.00 72 1003.8
20260506110031 55 237 2.6 12.2 0.00 0.00 0.00 71 1003.8
20260506104531 55 253 5.2 12.2 0.00 0.00 0.00 67 1003.9
20260506103037 56 273 3.5 12.2 0.00 0.00 0.00 65 1004.0
20260506101530 56 138 0.9 11.3 0.00 0.00 0.00 63 1004.2
20260506100034 55 33 1.7 11.3 0.00 0.00 0.00 65 1004.3
20260506094534 55 187 0.9 11.3 0.00 0.00 0.00 66 1004.4
20260506093028 55 245 4.3 11.3 0.00 0.00 0.00 65 1004.3
20260506091526 54 301 1.7 11.3 0.00 0.00 0.00 66 1004.4
20260506090021 53 277 3.5 11.3 0.00 0.00 0.00 68 1004.6
20260506084522 52 274 0.9 11.3 0.00 0.00 0.00 72 1004.5
20260506083020 52 285 3.5 11.3 0.00 0.00 0.00 73 1004.6
20260506081518 53 245 3.5 11.3 0.00 0.00 0.00 70 1004.7
20260506073015 54 271 3.5 10.4 0.00 0.00 0.00 61 1004.6
20260506071513 53 262 4.3 10.4 0.00 0.00 0.00 65 1004.6
20260506061601 51 288 5.2 13.0 0.00 0.00 0.00 73 1004.6
20260506060126 51 302 6.1 13.0 0.00 0.00 0.00 72 1004.6
20260506044605 48 280 5.2 0.0 0.00 0.00 0.00 79 1004.7
20260506043053 48 285 5.2 0.0 0.00 0.00 0.00 78 1004.6
20260506041551 0 0.0 0.0 0.00 0.00 0.00 1004.5
20260506040045 0 0.0 0.0 0.00 0.00 0.00 1004.6
20260506034541 0 0.0 0.0 0.00 0.00 0.00 1004.6
20260506033036 0 0.0 0.0 0.00 0.00 0.00 1004.6
20260506031532 48 288 4.3 7.0 0.00 0.00 0.00 78 1004.6
20260506030034 48 283 3.5 13.0 0.00 0.00 0.00 80 1004.6
20260506024541 48 269 3.5 13.0 0.00 0.00 0.00 80 1004.9
20260506023030 48 269 2.6 13.0 0.00 0.00 0.00 81 1004.9
20260506021526 48 293 4.3 13.0 0.00 0.00 0.00 82 1005.0
20260506020023 48 294 4.3 13.0 0.00 0.00 0.00 82 1005.2
20260506014528 49 286 3.5 13.0 0.00 0.00 0.00 81 1004.9
20260506013022 48 270 1.7 13.0 0.00 0.00 0.00 82 1004.9
20260506011522 48 287 4.3 13.0 0.00 0.00 0.00 82 1004.9
20260506010020 48 300 2.6 13.0 0.00 0.00 0.00 82 1004.8
20260506004518 49 266 2.6 13.0 0.00 0.00 0.00 81 1004.9
20260506003016 49 288 4.3 13.0 0.00 0.00 0.00 81 1004.9
20260506001511 49 280 2.6 13.0 0.00 0.00 0.00 81 1004.9
20260506000011 50 297 3.5 13.0 0.00 0.00 0.00 81 1005.0
20260505234508 50 231 2.6 13.0 0.00 0.00 0.00 81 1005.2
20260505233005 50 290 1.7 13.0 0.00 0.00 0.00 81 1005.4
20260505231504 50 306 2.6 13.0 0.00 0.00 0.00 81 1005.4
20260505230002 50 264 3.5 13.0 0.00 0.00 0.00 80 1005.4
20260505224601 50 257 2.6 13.0 0.00 0.00 0.00 80 1005.4
20260505223059 50 297 5.2 13.0 0.00 0.00 0.00 77 1005.4
20260505221558 51 284 4.3 13.0 0.00 0.00 0.00 75 1005.4
20260505220055 51 304 3.5 13.0 0.00 0.00 0.00 75 1005.5
20260505214554 51 281 4.3 13.0 0.00 0.00 0.00 74 1005.7
20260505213059 51 273 1.7 13.0 0.00 0.00 0.00 74 1005.7
20260505211553 51 278 2.6 13.0 0.00 0.00 0.00 74 1005.8
20260505210054 51 238 3.5 13.0 0.00 0.00 0.00 73 1005.7
20260505204554 51 288 3.5 13.0 0.00 0.00 0.00 73 1005.6
20260505203103 51 269 3.5 13.0 0.00 0.00 0.00 73 1005.6
20260505201549 51 296 6.1 15.6 0.00 0.00 0.00 71 1005.6
20260505200049 51 295 6.1 13.0 0.00 0.00 0.00 71 1005.5
20260505194551 52 245 7.0 16.5 0.00 0.00 0.00 70 1005.3
20260505193048 52 281 7.8 16.5 0.00 0.00 0.00 69 1005.2
20260505191606 52 287 6.1 15.6 0.00 0.00 0.00 69 1005.1
20260505190046 52 300 5.2 15.6 0.00 0.00 0.00 69 1005.1
20260505184546 52 284 6.1 15.6 0.00 0.00 0.00 70 1004.9
20260505183045 52 278 7.0 15.6 0.00 0.00 0.00 70 1004.7
20260505181544 52 273 4.3 15.6 0.00 0.00 0.00 70 1004.7
20260505180058 53 278 5.2 15.6 0.00 0.00 0.00 69 1004.7
20260505174552 53 285 5.2 15.6 0.00 0.00 0.00 69 1004.9
20260505173046 53 278 6.1 15.6 0.00 0.00 0.00 68 1004.7
20260505171544 53 284 4.3 15.6 0.00 0.00 0.00 68 1004.8
20260505170040 53 273 5.2 15.6 0.00 0.00 0.00 68 1004.9
20260505164542 53 294 4.3 15.6 0.00 0.00 0.00 67 1005.0
20260505163039 53 256 4.3 15.6 0.00 0.00 0.00 67 1005.0
20260505161545 53 280 7.0 15.6 0.00 0.00 0.00 67 1004.9
20260505153037 54 266 4.3 11.3 0.00 0.00 0.00 66 1004.9
20260505151537 55 286 6.1 9.6 0.00 0.00 0.00 65 1004.9